Location: Unspecified
(43.2633°N, 0.0000°E)
Time: 13:24:21
(UTC+00:00)

Burner II No. 7 - Visible Passes

Search period start: 04 April 2026 00:00
Search period end: 14 April 2026 00:00
Orbit: 755 x 813 km, 98.3° (Epoch: 29 March)

Date Brightness Start Highest point End Pass type
(mag) Time Alt. Az. Time Alt. Az. Time Alt. Az.
4 Apr 7.3 05:04:00 10° SE 05:08:58 48° ENE 05:14:03 10° N visible
4 Apr 6.6 18:53:48 10° N 18:59:07 67° WNW 19:04:20 10° SSW visible
4 Apr 9.7 20:37:16 10° NW 20:37:28 10° NW 20:37:41 10° WNW visible
5 Apr 8.5 04:33:42 10° ESE 04:38:00 27° ENE 04:42:22 10° N visible
5 Apr 9.1 20:03:12 10° NNW 20:06:45 18° WNW 20:10:16 10° WSW visible
6 Apr 9.3 04:04:16 10° E 04:07:11 15° ENE 04:10:06 10° NNE visible
6 Apr 8.1 19:31:12 10° N 19:35:53 32° WNW 19:40:30 10° SW visible
7 Apr 6.9 18:59:37 10° N 19:04:52 59° WNW 19:10:01 10° SSW visible
8 Apr 8.4 04:39:12 10° SE 04:43:42 30° ENE 04:48:15 10° N visible
8 Apr 9.2 20:09:13 10° NNW 20:12:26 16° WNW 20:15:37 10° W visible
9 Apr 9.2 04:09:34 10° E 04:12:51 17° ENE 04:16:11 10° NNE visible
9 Apr 8.4 19:37:05 10° N 19:41:35 29° WNW 19:46:02 10° WSW visible
10 Apr 7.2 19:05:27 10° N 19:10:36 52° WNW 19:15:39 10° SW visible
11 Apr 8.2 04:44:45 10° SE 04:49:25 33° ENE 04:54:09 10° N visible
11 Apr 9.4 20:15:18 10° NNW 20:18:06 15° WNW 20:20:52 10° W visible
12 Apr 9.2 04:14:55 10° ESE 04:18:32 19° ENE 04:22:11 10° NNE visible
12 Apr 8.6 19:43:00 10° N 19:47:17 26° WNW 19:51:32 10° WSW visible
13 Apr 9.8 03:46:50 10° ENE 03:47:48 10° NE 03:48:46 10° NE visible
13 Apr 7.4 19:11:16 10° N 19:16:19 46° WNW 19:21:17 10° SW visible
